Phuket, Thailand

1:47 PM ICT on February 14, 2016 (GMT +0700)
Phuket International

Weather History for VTSP - February, 2014

Change the Weather History Date:

Saturday, February 1, 2014

  Actual Average Record
Temperature  
Mean Temperature 80 °F -  
Max Temperature 90 °F 91 °F 100 °F (1998)
Min Temperature 71 °F 75 °F 71 °F (2008)
Cooling Degree Days 16    
Growing Degree Days 30 (Base 50)    
Moisture  
Dew Point 63 °F    
Average Humidity 59    
Maximum Humidity 88    
Minimum Humidity 22    
Precipitation  
Precipitation 0.00 in 0.04 in - ()
Sea Level Pressure  
Sea Level Pressure 29.88 in    
Wind  
Wind Speed 6 mph ()    
Max Wind Speed 16 mph    
Max Gust Speed -    
Visibility 5.7 miles    
Events      
Averages and records for this station are not official NWS values.
T = Trace of Precipitation, MM = Missing Value Source: Averaged Metar Reports

Daily Weather History Graph

Daily Weather History Graph

Search for Another Location

Airport or City:

Trip Planner

Search our weather history database for the weather conditions in past years. The results will help you decide how hot, cold, wet, or windy it might be!

Date:

Astronomy

Feb. 01, 2014 Rise Set
Actual Time 6:46 AM ICT 6:33 PM ICT
Civil Twilight 6:25 AM ICT 6:55 PM ICT
Nautical Twilight 5:59 AM ICT 7:20 PM ICT
Astronomical Twilight 5:34 AM ICT 7:46 PM ICT
Moon 7:41 AM ICT (2/1) 8:00 PM ICT (2/1)
Length of Visible Light 12h 30m
Length of Day
11h 46m
Waxing Crescent, 3% of the Moon is Illuminated
Feb 1
Waxing Crescent
Feb 7
First Quarter
Feb 15
Full
Feb 23
Last Quarter
Mar 1
New

Hourly Weather History & Observations

Time (ICT) Temp. Heat Index Dew Point Humidity Pressure Visibility Wind Dir Wind Speed Gust Speed Precip Events Conditions
12:00 AM 73.4 °F - 66.2 °F 78% 29.95 in 6.2 mi Calm Calm - N/A   Scattered Clouds
1:00 AM 76 °F - 69 °F 74% 29.88 in 6 mi Calm Calm - -   Scattered Clouds
1:00 AM 71.6 °F - 66.2 °F 83% 29.92 in 6.2 mi Calm Calm - N/A   Scattered Clouds
1:30 AM 71.6 °F - 66.2 °F 83% 29.92 in 6.2 mi Calm Calm - N/A   Scattered Clouds
2:00 AM 71.6 °F - 64.4 °F 78% 29.89 in 6.2 mi East 5.8 mph - N/A   Scattered Clouds
2:30 AM 75.2 °F - 64.4 °F 69% 29.89 in 6.2 mi ENE 9.2 mph - N/A   Partly Cloudy
3:00 AM 75.2 °F - 64.4 °F 69% 29.86 in 6.2 mi East 11.5 mph - N/A   Partly Cloudy
3:30 AM 75.2 °F - 66.2 °F 73% 29.86 in 6.2 mi ENE 9.2 mph - N/A   Partly Cloudy
4:00 AM 77 °F - 69 °F 71% 29.85 in 6 mi ENE 5.8 mph - -   Scattered Clouds
4:30 AM 75.2 °F - 66.2 °F 73% 29.86 in 6.2 mi ENE 8.1 mph - N/A   Partly Cloudy
5:00 AM 75.2 °F - 66.2 °F 73% 29.86 in 6.2 mi ENE 11.5 mph - N/A   Partly Cloudy
5:30 AM 75.2 °F - 66.2 °F 73% 29.86 in 6.2 mi ENE 8.1 mph - N/A   Partly Cloudy
6:30 AM 75.2 °F - 66.2 °F 73% 29.89 in 6.2 mi East 9.2 mph - N/A   Scattered Clouds
7:00 AM 75 °F - 67 °F 69% 29.88 in 6 mi ENE 5.8 mph - -   Scattered Clouds
7:00 AM 75.2 °F - 66.2 °F 73% 29.89 in 6.2 mi ENE 9.2 mph - N/A   Mostly Cloudy
7:30 AM 75.2 °F - 66.2 °F 73% 29.89 in 6.2 mi East 12.7 mph - N/A   Mostly Cloudy
8:00 AM 75.2 °F - 66.2 °F 73% 29.92 in 6.2 mi ENE 15.0 mph - N/A   Mostly Cloudy
8:30 AM 78.8 °F - 66.2 °F 65% 29.92 in 5.6 mi ENE 13.8 mph - N/A   Mostly Cloudy
9:00 AM 78.8 °F - 64.4 °F 61% 29.95 in 5.6 mi East 16.1 mph - N/A   Mostly Cloudy
9:30 AM 80.6 °F 82.3 °F 64.4 °F 58% 29.95 in 5.6 mi East 12.7 mph - N/A   Mostly Cloudy
10:00 AM 82 °F - 66 °F 50% 29.92 in 6 mi ENE 5.8 mph - -   Haze
10:00 AM 80.6 °F 82.3 °F 64.4 °F 58% 29.95 in 5.6 mi East 16.1 mph - N/A   Mostly Cloudy
10:30 AM 82.4 °F 83.9 °F 64.4 °F 54% 29.92 in 5.6 mi East 13.8 mph - N/A   Mostly Cloudy
11:00 AM 82.4 °F 83.4 °F 62.6 °F 51% 29.92 in 5.6 mi East 12.7 mph - N/A   Mostly Cloudy
11:30 AM 82.4 °F 83.4 °F 62.6 °F 51% 29.92 in 5.6 mi East 10.4 mph - N/A   Mostly Cloudy
12:00 PM 84.2 °F 83.5 °F 57.2 °F 40% 29.89 in 5.6 mi ENE 11.5 mph - N/A   Mostly Cloudy
12:30 PM 86.0 °F 84.5 °F 55.4 °F 35% 29.89 in 5.6 mi East 12.7 mph - N/A   Mostly Cloudy
1:00 PM 87 °F - 64 °F 35% 29.86 in 6 mi East 4.6 mph - -   Haze
1:00 PM 86.0 °F 84.9 °F 57.2 °F 37% 29.89 in 5.6 mi East 10.4 mph - N/A   Mostly Cloudy
1:30 PM 87.8 °F 86.1 °F 55.4 °F 33% 29.86 in 5.6 mi East 13.8 mph - N/A   Mostly Cloudy
2:00 PM 87.8 °F 86.1 °F 55.4 °F 33% 29.83 in 5.6 mi East 10.4 mph - N/A   Mostly Cloudy
2:30 PM 87.8 °F 86.1 °F 55.4 °F 33% 29.83 in 5.6 mi ESE 11.5 mph - N/A   Mostly Cloudy
3:00 PM 89.6 °F 87.3 °F 53.6 °F 29% 29.80 in 5.6 mi East 9.2 mph - N/A   Mostly Cloudy
3:30 PM 87.8 °F 85.7 °F 53.6 °F 31% 29.80 in 5.6 mi East 9.2 mph - N/A   Mostly Cloudy
4:00 PM 90 °F - 62 °F 29% 29.78 in 6 mi ENE 3.5 mph - -   Scattered Clouds
4:00 PM 89.6 °F - 51.8 °F 27% 29.80 in 5.6 mi East 8.1 mph - N/A   Mostly Cloudy
4:30 PM 89.6 °F - 51.8 °F 27% 29.80 in 5.6 mi East 5.8 mph - N/A   Mostly Cloudy
5:00 PM 89.6 °F - 50.0 °F 26% 29.80 in 5.6 mi East 9.2 mph - N/A   Mostly Cloudy
5:30 PM 89.6 °F - 46.4 °F 22% 29.80 in 5.6 mi ESE 8.1 mph - N/A   Mostly Cloudy
6:00 PM 84.2 °F 85.0 °F 62.6 °F 48% 29.80 in 5.6 mi North 8.1 mph - N/A   Mostly Cloudy
6:30 PM 80.6 °F 82.7 °F 66.2 °F 61% 29.83 in 5.6 mi WNW 9.2 mph - N/A   Mostly Cloudy
7:00 PM 83 °F - 70 °F 56% 29.83 in 6 mi Calm Calm - -   Scattered Clouds
7:00 PM 80.6 °F 82.7 °F 66.2 °F 61% 29.83 in 5.6 mi WNW 9.2 mph - N/A   Mostly Cloudy
7:30 PM 80.6 °F 82.7 °F 66.2 °F 61% 29.86 in 5.6 mi West 9.2 mph - N/A   Mostly Cloudy
8:00 PM 78.8 °F - 66.2 °F 65% 29.86 in 5.6 mi West 6.9 mph - N/A   Mostly Cloudy
8:30 PM 75.2 °F - 66.2 °F 73% 29.89 in 5.0 mi West 3.5 mph - N/A   Scattered Clouds
9:00 PM 77.0 °F - 68.0 °F 74% 29.89 in 5.0 mi WNW 4.6 mph - N/A   Scattered Clouds
9:30 PM 73.4 °F - 66.2 °F 78% 29.89 in 5.0 mi Variable 1.2 mph - N/A   Scattered Clouds
10:00 PM 82 °F - 69 °F 57% 29.90 in 6 mi Calm Calm - -   Scattered Clouds
10:00 PM 75.2 °F - 68.0 °F 78% 29.92 in 5.0 mi North 4.6 mph - N/A   Scattered Clouds
10:30 PM 71.6 °F - 68.0 °F 88% 29.92 in 5.0 mi Variable 1.2 mph - N/A   Scattered Clouds
11:00 PM 71.6 °F - 68.0 °F 88% 29.92 in 5.0 mi Calm Calm - N/A   Scattered Clouds
11:30 PM 71.6 °F - 68.0 °F 88% 29.92 in 5.0 mi Variable 2.3 mph - N/A   Scattered Clouds